STARLINK-1577, 46063

Orbit data source: Space-Track

STARLINK-1577, 46063 is a payload satellite owned by SpaceX/Seattle (US) in LEO that was launched on Fri, 07 Aug 2020 UTC via an FALCON 9 launch vehicle from the Air Force Eastern Test Range (AFETR). Payload-class satellites include a variety of spacecraft equipped with specific instruments for various scientific and technological missions. These include communications satellites like Starlink; space stations such as the ISS; scientific satellites like the Hubble; Earth observation satellites from companies like Planet Labs, Umbra, and HawkEye 360; GPS; miniature CubeSats for education and research; and military/defense satellites.

Loading next visibility...
Identifier
46063, 2020-055AN
Orbit
LEO
Country
Flag of USUS
Related business
Manufacturer
SpaceX/Seattle
Mission
Operational Commercial Communications
Bus & Motor
STARLINK, Unknown motor
Mass
260 kg wet, ~248 kg dry
Launch date (UTC)
2020-08-07 (6 years ago)
Launch vehicle
FALCON 9
Launch site
Air Force Eastern Test Range (AFETR)
Object type
Payload
Rocket body
Debris
Shape & HBR
Box + 1 Pan, 10.1 m
Radar Cross Section
13.562 m², Large (>1 m²)

Expand to show TLE details & history
Last TLE update: 5 hours ago

TLE from 5 hours ago
0 STARLINK-1577
1 46063U 20055AN  26263.59669502  .00000815  00000-0  38026-4 0  9999
2 46063  53.1581 286.8146 0001349  82.6542 277.4613 15.31702847338937
Epoch: 2026-09-20T14:19Z
TLE epoch observation values (Epoch: 2026-09-20T14:19:14.449Z)
Latitude
-0.00001°
Longitude
72.51579°
Altitude
471.512 km
Speed
7.632 km/s
True Right ascension
19h 07m 15s
True Declination
0° 00' 00"
Sunlit
Object was in daylight at epoch
Visualization orbit readout
Latitude
Unknown
Longitude
Unknown
Altitude
Unknown
Speed
Unknown
Apparent Right ascension
Unknown
Apparent Declination
Unknown
Sunlit
N/A
Visualization observer readout
Local Sidereal Time
12:12:37
Azimuth
Unknown
Elevation
Unknown
Doppler factor
Unknown
Orbital elements
Apogee altitude
471.912 km
Perigee altitude
470.064 km
Semi-major axis
6,849.125 km
Eccentricity
0.00013
Inclination
53.1581°
RAAN
286.8146°
Arg. of periapsis
82.6542°
True anomaly
277.44597°
Mean anomaly
277.4613°
Eccentric anomaly
277.45364°
Mean motion
3.82905 °/min
Orbital period
94.02 mins
BSTAR
0.000038026
Loading maneuver chart data...
Computing Atmospheric mass density...

Documentation

Showing up to 5 results
|